Content
SEND FEEDBACK

Daily
Averages
Monthly
Summary
United States of America

NEW YORK - CENTRAL PARK, NEW YORK


Home > North America > United States > New York
Elevation: 14 feet     Latitude: 40 47N     Longitude: 073 58W

WEATHER
 
SELECT A DAY
Number of Records: 152,969;   Date Range: 11/1/95 - 12/17/14
 
SHARE

PRINT THIS DATA

[ ← Previous Day ]
WEATHER ALMANAC - FEBRUARY 20, 2013
[ Next Day → ]
[ °C ]   °F
Weather ElementAverageHighLow
Temperature30.3 °F36 °F (1:51 am)26.1 °F (10:51 pm)
Dewpoint11.4 °F19.9 °F (1:51 am)7 °F (9:51 pm)
Humidity45.7 %53 % (7:51 pm)37 % (1:51 pm)
Barometer29.85 in29.98 in (11:51 pm)29.72 in (1:51 am)
Wind Speed11.9 mph17.3 mph (7:51 pm)
Wind Gust33.4 mph (7:51 am)
Weather ElementAverage
Visibility10 mi
Wind DirectionW (265.2 °)

Weather ElementTotal
Precipitation---
Heating Degree Days34 (Base 65)
Averaged from 23 records on February 20, 2013
WEATHER CONDITIONS BREAKOUT
WIND DIRECTION BREAKOUT
WEATHER BY HOUR - FEBRUARY 20, 2013
[ °C ]   °F
Local TimeTemperatureDewpointHumidityBarometerVisibilityWind DirectionWind SpeedGust SpeedPrecipitationEventsConditions
1:51 AM36.0 °F19.9 °F52 %29.72 in10.0 miWest (280°)10.4 mph20.7 mphClear
2:51 AM35.1 °F18.0 °F50 %29.73 in10.0 miWNW (290°)12.7 mph23.0 mphClear
3:51 AM33.1 °F17.1 °F52 %29.74 in10.0 miWest (270°)10.4 mph29.9 mphClear
4:51 AM32.0 °F14.0 °F48 %29.76 in10.0 miWNW (290°)9.2 mph19.6 mphClear
5:51 AM30.9 °F14.0 °F50 %29.78 in10.0 miWNW (290°)13.8 mph23.0 mphClear
6:51 AM30.9 °F14.0 °F50 %29.80 in10.0 miWNW (290°)10.4 mph23.0 mphClear
7:51 AM30.9 °F15.1 °F52 %29.83 in10.0 miWest (280°)16.1 mph33.4 mphMostly Cloudy
8:51 AM30.0 °F10.0 °F43 %29.84 in10.0 miWNW (290°)15.0 mph24.2 mphClear
9:51 AM30.9 °F9.0 °F40 %29.85 in10.0 miNW (310°)11.5 mph24.2 mphPartly Cloudy
10:51 AM30.9 °F10.0 °F42 %29.85 in10.0 miWNW (300°)9.2 mph23.0 mphOvercast
11:51 AM30.0 °F10.9 °F45 %29.84 in10.0 miWNW (290°)12.7 mph21.9 mphOvercast
12:51 PM30.9 °F9.0 °F40 %29.84 in10.0 miWest (280°)16.1 mph28.8 mphOvercast
1:51 PM32.0 °F8.1 °F37 %29.83 in10.0 miWest (280°)10.4 mph26.5 mphOvercast
2:51 PM30.0 °F8.1 °F40 %29.85 in10.0 miWNW (290°)15.0 mph26.5 mphOvercast
3:51 PM30.0 °F9.0 °F41 %29.87 in10.0 miWNW (290°)9.2 mph21.9 mphMostly Cloudy
4:51 PM30.0 °F9.0 °F41 %29.88 in10.0 miWNW (290°)11.5 mph24.2 mphScattered Clouds
5:51 PM30.0 °F9.0 °F41 %29.90 in10.0 miWNW (290°)8.1 mph25.3 mphOvercast
6:51 PM28.9 °F10.9 °F47 %29.93 in10.0 miWNW (300°)13.8 mph25.3 mphOvercast
7:51 PM28.0 °F12.9 °F53 %29.94 in10.0 miWNW (290°)17.3 mph27.6 mphMostly Cloudy
8:51 PM27.0 °F10.0 °F49 %29.95 in10.0 miNW (320°)15.0 mph23.0 mphScattered Clouds
9:51 PM27.0 °F7.0 °F43 %29.95 in10.0 miWNW (290°)8.1 mph21.9 mphClear
10:51 PM26.1 °F8.1 °F47 %29.96 in10.0 miNorthClear
11:51 PM26.1 °F8.1 °F47 %29.98 in10.0 miVariable5.8 mph18.4 mphPartly Cloudy
Hourly data recorded from KNYC, located miles away from New York - Central Park, New York







STORIES FROM OUR PARTNERS